TimeEDT,TemperatureF,Dew PointF,Humidity,Sea Level PressureIn,VisibilityMPH,Wind Direction,Wind SpeedMPH,Gust SpeedMPH,PrecipitationIn,Events,Conditions,WindDirDegrees,DateUTC
12:53 AM,43.0,42.1,97,29.99,10.0,Calm,Calm,-,N/A,,Clear,0,2013-09-25 04:53:00
1:40 AM,42.8,41.0,93,29.97,1.8,WSW,3.5,-,N/A,,Clear,240,2013-09-25 05:40:00
1:50 AM,42.8,41.0,93,29.98,4.0,Calm,Calm,-,N/A,,Clear,0,2013-09-25 05:50:00
1:53 AM,43.0,42.1,97,29.99,10.0,Calm,Calm,-,N/A,,Clear,0,2013-09-25 05:53:00
2:53 AM,42.1,41.0,96,29.98,8.0,SSW,3.5,-,N/A,,Clear,210,2013-09-25 06:53:00
3:53 AM,43.0,41.0,93,29.98,7.0,Calm,Calm,-,N/A,,Clear,0,2013-09-25 07:53:00
4:53 AM,42.1,39.9,92,29.99,10.0,Calm,Calm,-,N/A,,Clear,0,2013-09-25 08:53:00
5:53 AM,39.9,39.0,97,29.99,3.0,Calm,Calm,-,N/A,,Clear,0,2013-09-25 09:53:00
6:03 AM,39.2,37.4,93,29.98,1.5,Calm,Calm,-,N/A,,Clear,0,2013-09-25 10:03:00
6:05 AM,39.2,37.4,93,29.98,1.0,Calm,Calm,-,N/A,,Mist,0,2013-09-25 10:05:00
6:13 AM,39.2,37.4,93,29.98,0.5,Calm,Calm,-,N/A,Fog,Fog,0,2013-09-25 10:13:00
6:19 AM,39.2,37.4,93,29.99,1.5,SW,3.5,-,N/A,,Partly Cloudy,220,2013-09-25 10:19:00
6:21 AM,39.2,37.4,93,29.99,3.0,Calm,Calm,-,N/A,,Partly Cloudy,0,2013-09-25 10:21:00
6:53 AM,41.0,39.0,93,30.00,10.0,Calm,Calm,-,N/A,,Clear,0,2013-09-25 10:53:00
7:53 AM,43.0,42.1,97,30.01,10.0,Calm,Calm,-,N/A,,Clear,0,2013-09-25 11:53:00
8:53 AM,48.9,46.0,90,30.01,10.0,WSW,4.6,-,N/A,,Clear,240,2013-09-25 12:53:00
9:53 AM,52.0,46.0,80,30.02,10.0,SW,4.6,-,N/A,,Clear,230,2013-09-25 13:53:00
10:53 AM,57.0,46.9,69,30.01,10.0,West,4.6,-,N/A,,Clear,280,2013-09-25 14:53:00
11:53 AM,61.0,46.0,58,30.00,10.0,NW,5.8,-,N/A,,Clear,320,2013-09-25 15:53:00
12:53 PM,63.0,46.0,54,29.99,10.0,WSW,4.6,-,N/A,,Clear,250,2013-09-25 16:53:00
1:53 PM,64.9,46.9,52,29.98,10.0,NNW,4.6,-,N/A,,Clear,340,2013-09-25 17:53:00
2:53 PM,66.9,48.0,51,29.97,10.0,North,5.8,-,N/A,,Clear,10,2013-09-25 18:53:00
3:53 PM,66.9,48.0,51,29.96,10.0,Calm,Calm,-,N/A,,Clear,0,2013-09-25 19:53:00
4:53 PM,68.0,48.0,49,29.96,10.0,NW,3.5,-,N/A,,Clear,310,2013-09-25 20:53:00
5:53 PM,66.0,46.9,50,29.97,10.0,Calm,Calm,-,N/A,,Clear,0,2013-09-25 21:53:00
6:53 PM,59.0,50.0,72,29.98,10.0,Calm,Calm,-,N/A,,Clear,0,2013-09-25 22:53:00
7:53 PM,55.0,51.1,86,29.99,10.0,Calm,Calm,-,N/A,,Overcast,0,2013-09-25 23:53:00
8:53 PM,55.9,48.9,77,30.00,10.0,ENE,8.1,-,N/A,,Partly Cloudy,70,2013-09-26 00:53:00
9:53 PM,53.1,48.0,83,30.01,10.0,NE,6.9,-,N/A,,Clear,50,2013-09-26 01:53:00
10:53 PM,52.0,46.9,83,30.02,10.0,ENE,6.9,-,N/A,,Clear,60,2013-09-26 02:53:00
11:53 PM,50.0,46.0,86,30.04,10.0,NE,3.5,-,N/A,,Clear,50,2013-09-26 03:53:00